K6OUA-11 Weather Reports


Display with metric or nautical units.
time (UTC)temp
F
wind
direction
speed
MPH
gust
MPH
rain 1hr
in
rain 24hr
in
rain mn
in
humidity
%
barometer
mb
20191021094957 70 180 1.0 4.0 0.00 0.00 0.00 29 1008.9
20191021094655 70 123 3.0 5.0 0.00 0.00 0.00 29 1008.9
20191021094356 70 180 1.0 8.0 0.00 0.00 0.00 28 1008.8
20191021094054 70 47 6.0 6.0 0.00 0.00 0.00 29 1008.9
20191021093753 70 90 2.0 5.0 0.00 0.00 0.00 28 1008.8
20191021093151 70 18 7.0 7.0 0.00 0.00 0.00 29 1008.8
20191021091945 70 45 2.0 6.0 0.00 0.00 0.00 28 1009.0
20191021091646 70 45 4.0 7.0 0.00 0.00 0.00 28 1009.0
20191021091344 70 45 5.0 7.0 0.00 0.00 0.00 28 1009.1
20191021091043 70 45 3.0 9.0 0.00 0.00 0.00 28 1009.0
20191021090740 70 90 4.0 4.0 0.00 0.00 0.00 28 1009.0
20191021090441 70 90 2.0 6.0 0.00 0.00 0.00 28 1009.1
20191021090138 70 67 1.0 5.0 0.00 0.00 0.00 28 1009.1
20191021085837 70 90 3.0 6.0 0.00 0.00 0.00 28 1009.1
20191021085537 70 67 4.0 6.0 0.00 0.00 0.00 28 1009.0
20191021085236 71 85 6.0 7.0 0.00 0.00 0.00 28 1009.0
20191021084934 71 130 3.0 7.0 0.00 0.00 0.00 28 1008.9
20191021084635 71 135 1.0 7.0 0.00 0.00 0.00 28 1008.9
20191021084333 71 96 4.0 8.0 0.00 0.00 0.00 28 1008.8
20191021083731 71 114 4.0 6.0 0.00 0.00 0.00 28 1008.8
20191021083431 71 90 3.0 7.0 0.00 0.00 0.00 28 1008.8
20191021083129 71 87 7.0 7.0 0.00 0.00 0.00 29 1008.8
20191021082829 71 90 5.0 7.0 0.00 0.00 0.00 28 1008.7
20191021082525 71 90 7.0 7.0 0.00 0.00 0.00 28 1008.7
20191021082224 71 105 6.0 7.0 0.00 0.00 0.00 28 1008.6
20191021081923 71 90 4.0 6.0 0.00 0.00 0.00 28 1008.6
20191021081655 71 99 5.0 7.0 0.00 0.00 0.00 28 1008.6
20191021081623 71 99 5.0 7.0 0.00 0.00 0.00 28 1008.6
20191021081021 71 74 4.0 6.0 0.00 0.00 0.00 28 1008.5
20191021080718 71 90 4.0 5.0 0.00 0.00 0.00 29 1008.5
20191021080419 71 69 7.0 8.0 0.00 0.00 0.00 29 1008.6
20191021075514 71 99 5.0 6.0 0.00 0.00 0.00 28 1008.5
20191021075214 71 90 4.0 6.0 0.00 0.00 0.00 28 1008.7
20191021074912 71 92 5.0 6.0 0.00 0.00 0.00 28 1008.6
20191021074610 71 90 4.0 5.0 0.00 0.00 0.00 29 1008.6
20191021073408 71 90 2.0 4.0 0.00 0.00 0.00 28 1008.6
20191021073106 71 45 3.0 6.0 0.00 0.00 0.00 28 1008.6
20191021072806 71 90 2.0 6.0 0.00 0.00 0.00 28 1008.6
20191021072503 71 90 4.0 7.0 0.00 0.00 0.00 28 1008.6
20191021072202 71 90 5.0 7.0 0.00 0.00 0.00 28 1008.5
20191021071902 71 90 5.0 7.0 0.00 0.00 0.00 28 1008.6
20191021071601 71 90 5.0 6.0 0.00 0.00 0.00 28 1008.6
20191021071258 71 90 4.0 7.0 0.00 0.00 0.00 28 1008.6
20191021070957 71 90 7.0 8.0 0.00 0.00 0.00 28 1008.6
20191021070656 71 90 6.0 7.0 0.00 0.00 0.00 28 1008.6
20191021070357 71 67 5.0 5.0 0.00 0.00 0.00 28 1008.7
20191021070054 71 67 3.0 6.0 0.00 0.00 0.00 28 1008.6
20191021065755 71 45 6.0 9.0 0.00 0.00 0.00 28 1008.7
20191021065452 71 45 5.0 9.0 0.00 0.00 0.00 28 1008.6
20191021065153 71 45 8.0 8.0 0.00 0.00 0.00 28 1008.7
20191021064851 71 90 5.0 6.0 0.00 0.00 0.00 29 1008.7
20191021064550 71 90 5.0 6.0 0.00 0.00 0.00 29 1008.6
20191021064249 71 90 6.0 8.0 0.00 0.00 0.00 29 1008.7
20191021063949 70 67 8.0 9.0 0.00 0.00 0.00 29 1008.7
20191021063718 70 67 3.0 10.0 0.00 0.00 0.00 29 1008.7
20191021063645 70 67 3.0 10.0 0.00 0.00 0.00 29 1008.7
20191021063043 70 67 5.0 9.0 0.00 0.00 0.00 30 1008.8
20191021062526 70 90 3.0 6.0 0.00 0.00 0.00 29 1008.8
20191021062441 70 90 3.0 6.0 0.00 0.00 0.00 29 1008.8
20191021061840 70 90 3.0 4.0 0.00 0.00 0.00 29 1008.8
20191021061540 70 90 3.0 3.0 0.00 0.00 0.00 29 1008.7
20191021061236 70 90 2.0 5.0 0.00 0.00 0.00 29 1008.7
20191021060937 70 90 2.0 6.0 0.00 0.00 0.00 29 1008.6
20191021060634 70 90 3.0 5.0 0.00 0.00 0.00 29 1008.6
20191021060034 70 90 3.0 6.0 0.00 0.00 0.00 28 1008.6
20191021055731 70 90 3.0 5.0 0.00 0.00 0.00 28 1008.5
20191021055430 70 90 3.0 6.0 0.00 0.00 0.00 28 1008.6
20191021055131 70 90 4.0 6.0 0.00 0.00 0.00 28 1008.6
20191021054828 70 90 3.0 4.0 0.00 0.00 0.00 28 1008.5
20191021054526 71 90 2.0 4.0 0.00 0.00 0.00 28 1008.5
20191021054300 71 90 3.0 5.0 0.00 0.00 0.00 28 1008.5
20191021054226 71 90 3.0 5.0 0.00 0.00 0.00 28 1008.5
20191021053623 71 90 3.0 7.0 0.00 0.00 0.00 28 1008.5
20191021053325 71 90 6.0 6.0 0.00 0.00 0.00 28 1008.3
20191021052801 71 90 3.0 5.0 0.00 0.00 0.00 27 1008.3
20191021052717 71 90 3.0 5.0 0.00 0.00 0.00 27 1008.3
20191021052707 72 90 3.0 4.0 0.00 0.00 0.00 27 1008.2
20191021052613 72 90 3.0 4.0 0.00 0.00 0.00 27 1008.2
20191021052516 72 90 3.0 4.0 0.00 0.00 0.00 27 1008.2
20191021052416 72 90 2.0 3.0 0.00 0.00 0.00 27 1008.3
20191021052414 72 90 3.0 4.0 0.00 0.00 0.00 27 1008.2
20191021052314 72 90 4.0 10.0 0.00 0.00 0.00 27 1008.2
20191021052211 72 90 4.0 6.0 0.00 0.00 0.00 27 1008.2
20191021052114 72 90 2.0 4.0 0.00 0.00 0.00 27 1008.2
20191021052106 72 90 2.0 3.0 0.00 0.00 0.00 27 1008.3
20191021052000 72 90 2.0 3.0 0.00 0.00 0.00 27 1008.3
20191021051850 72 90 4.0 10.0 0.00 0.00 0.00 27 1008.2
20191021051813 72 90 2.0 3.0 0.00 0.00 0.00 27 1008.3
20191021051741 72 90 4.0 10.0 0.00 0.00 0.00 27 1008.2
20191021051628 72 90 4.0 10.0 0.00 0.00 0.00 27 1008.2
20191021051512 72 90 4.0 6.0 0.00 0.00 0.00 27 1008.2
20191021051354 72 90 4.0 10.0 0.00 0.00 0.00 27 1008.2
20191021051210 72 90 4.0 10.0 0.00 0.00 0.00 27 1008.2
20191021050908 72 67 9.0 10.0 0.00 0.00 0.00 27 1008.2
20191021050609 72 90 3.0 3.0 0.00 0.00 0.00 27 1008.2
20191021050008 73 90 2.0 4.0 0.00 0.00 0.00 27 1007.9
20191021045704 73 87 3.0 4.0 0.00 0.00 0.00 27 1008.0
20191021045403 73 135 3.0 7.0 0.00 0.00 0.00 26 1007.9
20191021045103 73 103 4.0 12.0 0.00 0.00 0.00 26 1007.9
20191021044802 73 96 4.0 12.0 0.00 0.00 0.00 26 1007.8
20191021044501 73 119 7.0 9.0 0.00 0.00 0.00 26 1007.8
20191021044200 74 49 7.0 18.0 0.00 0.00 0.00 26 1007.8
20191021043556 73 337 7.0 18.0 0.00 0.00 0.00 26 1007.4
20191021043255 73 2 16.0 18.0 0.00 0.00 0.00 26 1007.5
20191021042956 73 346 11.0 14.0 0.00 0.00 0.00 26 1007.7
20191021042655 73 0 14.0 17.0 0.00 0.00 0.00 27 1007.9
20191021042353 73 13 13.0 15.0 0.00 0.00 0.00 27 1008.0
20191021041450 73 33 9.0 13.0 0.00 0.00 0.00 27 1007.9
20191021041149 73 36 8.0 10.0 0.00 0.00 0.00 27 1008.0
20191021040846 73 45 4.0 12.0 0.00 0.00 0.00 27 1007.9
20191021040547 73 60 8.0 12.0 0.00 0.00 0.00 27 1008.1
20191021040244 74 31 3.0 12.0 0.00 0.00 0.00 27 1008.0
20191021035642 74 49 9.0 14.0 0.00 0.00 0.00 27 1007.9
20191021035341 74 50 7.0 13.0 0.00 0.00 0.00 26 1007.8
20191021035041 74 45 6.0 15.0 0.00 0.00 0.00 26 1008.0
20191021034437 75 27 11.0 13.0 0.00 0.00 0.00 25 1007.8
20191021034136 75 47 8.0 12.0 0.00 0.00 0.00 25 1007.7
20191021033534 75 36 6.0 10.0 0.00 0.00 0.00 25 1007.7
20191021032932 76 29 9.0 14.0 0.00 0.00 0.00 25 1007.6
20191021032330 76 45 8.0 14.0 0.00 0.00 0.00 25 1007.6
20191021032030 76 36 8.0 14.0 0.00 0.00 0.00 25 1007.6
20191021031727 76 38 10.0 13.0 0.00 0.00 0.00 25 1007.6
20191021031428 76 38 10.0 13.0 0.00 0.00 0.00 24 1007.6
20191021031127 76 20 7.0 18.0 0.00 0.00 0.00 24 1007.6
20191021030826 76 20 7.0 18.0 0.00 0.00 0.00 24 1007.6
20191021030525 77 54 9.0 20.0 0.00 0.00 0.00 24 1007.5
20191021025923 77 33 6.0 12.0 0.00 0.00 0.00 24 1007.6
20191021025622 77 20 10.0 14.0 0.00 0.00 0.00 24 1007.5
20191021025320 77 47 12.0 12.0 0.00 0.00 0.00 24 1007.4
20191021025017 77 57 8.0 16.0 0.00 0.00 0.00 23 1007.3
20191021024718 77 49 16.0 16.0 0.00 0.00 0.00 23 1007.3
20191021024415 77 67 9.0 17.0 0.00 0.00 0.00 23 1007.2
20191021023813 78 58 6.0 13.0 0.00 0.00 0.00 23 1007.1
20191021023514 78 42 8.0 17.0 0.00 0.00 0.00 22 1007.1
20191021023213 78 33 17.0 17.0 0.00 0.00 0.00 22 1007.1
20191021022611 78 22 9.0 13.0 0.00 0.00 0.00 23 1007.0
20191021022309 78 22 8.0 17.0 0.00 0.00 0.00 22 1006.9
20191021022006 78 47 17.0 20.0 0.00 0.00 0.00 22 1006.8
20191021021708 77 33 10.0 11.0 0.00 0.00 0.00 22 1006.6
20191021021105 77 10 9.0 13.0 0.00 0.00 0.00 23 1006.7
20191021020802 77 335 5.0 17.0 0.00 0.00 0.00 23 1006.7
20191021020501 77 355 15.0 17.0 0.00 0.00 0.00 23 1006.5
20191021020202 77 8 9.0 19.0 0.00 0.00 0.00 23 1006.6
20191021015901 77 355 12.0 19.0 0.00 0.00 0.00 22 1006.5
20191021015558 77 10 10.0 20.0 0.00 0.00 0.00 23 1006.5
20191021015256 77 0 18.0 20.0 0.00 0.00 0.00 23 1006.3
20191021014955 77 2 10.0 14.0 0.00 0.00 0.00 23 1006.3
20191021014355 77 11 10.0 19.0 0.00 0.00 0.00 23 1006.3
20191021013751 77 6 8.0 13.0 0.00 0.00 0.00 23 1006.4
20191021013151 77 355 6.0 9.0 0.00 0.00 0.00 23 1006.3
20191021012849 77 0 7.0 10.0 0.00 0.00 0.00 24 1006.4
20191021012546 77 347 7.0 11.0 0.00 0.00 0.00 23 1006.4
20191021012245 77 326 4.0 17.0 0.00 0.00 0.00 23 1006.5
20191021011946 78 321 8.0 17.0 0.00 0.00 0.00 23 1006.3
20191021011042 78 333 7.0 14.0 0.00 0.00 0.00 23 1006.2
20191021010740 78 317 9.0 10.0 0.00 0.00 0.00 23 1006.2
20191021010139 79 342 7.0 13.0 0.00 0.00 0.00 22 1006.3
20191021005837 79 32 8.0 17.0 0.00 0.00 0.00 22 1006.4
20191021005537 79 357 10.0 15.0 0.00 0.00 0.00 22 1006.3
20191021005234 79 2 8.0 12.0 0.00 0.00 0.00 22 1006.4
20191021004632 79 270 8.0 9.0 0.00 0.00 0.00 22 1006.1
20191021004333 79 327 4.0 9.0 0.00 0.00 0.00 22 1006.1
20191021004030 80 326 3.0 7.0 0.00 0.00 0.00 22 1006.1
20191021003128 80 0 7.0 12.0 0.00 0.00 0.00 24 1006.0
20191021002524 80 355 9.0 10.0 0.00 0.00 0.00 23 1006.2
20191021002225 81 57 9.0 11.0 0.00 0.00 0.00 24 1006.2
20191021001624 81 351 10.0 14.0 0.00 0.00 0.00 24 1006.1
20191021001021 81 0 11.0 13.0 0.00 0.00 0.00 23 1005.9
20191021000720 81 0 3.0 13.0 0.00 0.00 0.00 23 1006.0
20191021000418 82 0 10.0 10.0 0.00 0.00 0.00 23 1006.0
20191020235515 83 19 6.0 10.0 0.00 0.00 0.00 23 1006.0
20191020234913 83 351 6.0 13.0 0.00 0.00 0.00 22 1006.1
20191020234612 83 335 5.0 13.0 0.00 0.00 0.00 22 1006.0
20191020234309 83 24 9.0 12.0 0.00 0.00 0.00 22 1006.1
20191020234010 83 348 6.0 17.0 0.00 0.00 0.00 22 1006.2
20191020233707 83 345 14.0 17.0 0.00 0.00 0.00 22 1006.2
20191020233408 83 15 14.0 18.0 0.00 0.00 0.00 23 1006.3
20191020233106 83 27 13.0 18.0 0.00 0.00 0.00 22 1006.4
20191020232805 84 38 17.0 20.0 0.00 0.00 0.00 22 1006.1
20191020232203 84 27 11.0 18.0 0.00 0.00 0.00 23 1006.3
20191020231902 84 353 13.0 16.0 0.00 0.00 0.00 23 1006.2
20191020231559 84 6 9.0 21.0 0.00 0.00 0.00 24 1006.3
20191020230959 85 357 9.0 12.0 0.00 0.00 0.00 24 1006.3
20191020230658 85 9 5.0 14.0 0.00 0.00 0.00 24 1006.3
20191020230356 85 31 9.0 14.0 0.00 0.00 0.00 24 1006.3
20191020230054 85 31 13.0 18.0 0.00 0.00 0.00 24 1006.3
20191020225754 85 20 18.0 18.0 0.00 0.00 0.00 24 1006.3
20191020225453 85 0 13.0 17.0 0.00 0.00 0.00 24 1006.3
20191020225152 85 333 6.0 17.0 0.00 0.00 0.00 24 1006.3
20191020224550 86 36 10.0 18.0 0.00 0.00 0.00 23 1006.4
20191020224247 86 11 13.0 16.0 0.00 0.00 0.00 23 1006.2
20191020223946 86 40 12.0 16.0 0.00 0.00 0.00 23 1006.3
20191020223645 86 4 13.0 16.0 0.00 0.00 0.00 23 1006.2
20191020223345 86 0 11.0 15.0 0.00 0.00 0.00 23 1006.3
20191020223044 86 4 7.0 17.0 0.00 0.00 0.00 23 1006.3
20191020222440 86 24 7.0 12.0 0.00 0.00 0.00 22 1006.2
20191020222139 86 346 6.0 11.0 0.00 0.00 0.00 23 1006.3
20191020221840 86 344 9.0 12.0 0.00 0.00 0.00 22 1006.2
20191020221539 86 20 8.0 13.0 0.00 0.00 0.00 23 1006.1
20191020221238 86 45 4.0 15.0 0.00 0.00 0.00 22 1006.2
20191020220635 86 18 12.0 14.0 0.00 0.00 0.00 22 1006.3
20191020220335 86 33 8.0 17.0 0.00 0.00 0.00 23 1006.3
20191020220033 86 6 8.0 17.0 0.00 0.00 0.00 22 1006.3
20191020215732 87 24 15.0 19.0 0.00 0.00 0.00 22 1006.3
20191020215429 87 2 5.0 18.0 0.00 0.00 0.00 22 1006.2
20191020215130 87 13 14.0 14.0 0.00 0.00 0.00 22 1006.3
20191020214827 87 65 10.0 13.0 0.00 0.00 0.00 22 1006.2
20191020214528 86 0 7.0 14.0 0.00 0.00 0.00 22 1006.2
20191020214227 87 45 4.0 13.0 0.00 0.00 0.00 22 1006.2
20191020213924 87 2 5.0 17.0 0.00 0.00 0.00 22 1006.2
20191020213624 87 81 11.0 17.0 0.00 0.00 0.00 22 1006.2
20191020213322 87 22 9.0 15.0 0.00 0.00 0.00 22 1006.3
20191020213020 86 78 10.0 15.0 0.00 0.00 0.00 22 1006.3
20191020212420 87 324 5.0 16.0 0.00 0.00 0.00 22 1006.5
20191020212117 87 45 14.0 14.0 0.00 0.00 0.00 22 1006.5
20191020211517 87 29 12.0 13.0 0.00 0.00 0.00 22 1006.5
20191020211214 87 65 6.0 16.0 0.00 0.00 0.00 22 1006.5
20191020210915 87 36 4.0 16.0 0.00 0.00 0.00 22 1006.5
20191020210311 87 51 8.0 13.0 0.00 0.00 0.00 23 1006.8
20191020205708 86 37 10.0 13.0 0.00 0.00 0.00 23 1006.5
20191020205409 86 351 12.0 13.0 0.00 0.00 0.00 22 1006.7
20191020205108 86 85 3.0 16.0 0.00 0.00 0.00 23 1006.8
20191020204805 86 36 6.0 14.0 0.00 0.00 0.00 23 1006.9
20191020204506 86 18 13.0 14.0 0.00 0.00 0.00 24 1006.9
20191020204205 86 22 7.0 10.0 0.00 0.00 0.00 24 1007.0
20191020203902 86 348 5.0 14.0 0.00 0.00 0.00 24 1007.0
20191020203601 86 38 8.0 15.0 0.00 0.00 0.00 25 1007.2
20191020203300 86 332 5.0 9.0 0.00 0.00 0.00 25 1007.2
20191020203000 85 15 12.0 15.0 0.00 0.00 0.00 25 1007.3
20191020202659 85 33 7.0 17.0 0.00 0.00 0.00 25 1007.3
20191020202358 85 0 11.0 17.0 0.00 0.00 0.00 24 1007.3
20191020201756 85 29 4.0 10.0 0.00 0.00 0.00 25 1007.4
20191020201455 85 351 7.0 16.0 0.00 0.00 0.00 25 1007.5
20191020201154 85 11 12.0 14.0 0.00 0.00 0.00 25 1007.6
20191020200851 85 19 9.0 11.0 0.00 0.00 0.00 25 1007.7
20191020200250 84 2 3.0 12.0 0.00 0.00 0.00 27 1007.5
20191020195647 84 20 9.0 17.0 0.00 0.00 0.00 26 1007.4
20191020195345 84 11 9.0 19.0 0.00 0.00 0.00 27 1007.5
20191020195046 84 347 12.0 19.0 0.00 0.00 0.00 27 1007.6
20191020194745 84 37 9.0 19.0 0.00 0.00 0.00 26 1007.6
20191020194444 84 30 11.0 19.0 0.00 0.00 0.00 27 1007.6
20191020193840 84 9 15.0 19.0 0.00 0.00 0.00 27 1007.7
20191020193540 84 40 16.0 19.0 0.00 0.00 0.00 27 1007.5
20191020193239 84 40 11.0 13.0 0.00 0.00 0.00 27 1007.6
20191020192637 84 85 13.0 22.0 0.00 0.00 0.00 27 1007.7
20191020192334 84 55 6.0 15.0 0.00 0.00 0.00 27 1007.8
20191020191734 83 65 7.0 13.0 0.00 0.00 0.00 28 1008.0
20191020191433 83 285 1.0 13.0 0.00 0.00 0.00 28 1008.0
20191020191131 83 62 6.0 16.0 0.00 0.00 0.00 28 1008.0
20191020190830 83 29 5.0 14.0 0.00 0.00 0.00 28 1008.0
20191020190528 83 6 8.0 17.0 0.00 0.00 0.00 28 1008.1
20191020185927 83 18 7.0 15.0 0.00 0.00 0.00 28 1008.3
20191020185626 83 36 12.0 13.0 0.00 0.00 0.00 29 1008.2
20191020185024 82 38 9.0 11.0 0.00 0.00 0.00 29 1008.2
20191020184723 82 20 6.0 12.0 0.00 0.00 0.00 30 1008.2
20191020184422 82 15 9.0 12.0 0.00 0.00 0.00 30 1008.3
20191020184121 82 31 8.0 17.0 0.00 0.00 0.00 30 1008.4
20191020183819 82 9 6.0 17.0 0.00 0.00 0.00 30 1008.4
20191020183518 82 355 10.0 12.0 0.00 0.00 0.00 30 1008.4
20191020183217 81 56 8.0 12.0 0.00 0.00 0.00 30 1008.4
20191020182916 81 45 12.0 12.0 0.00 0.00 0.00 31 1008.5
20191020182615 81 9 10.0 11.0 0.00 0.00 0.00 30 1008.6
20191020182314 81 40 7.0 11.0 0.00 0.00 0.00 31 1008.5
20191020182013 81 58 12.0 18.0 0.00 0.00 0.00 31 1008.5
20191020181712 81 7 12.0 15.0 0.00 0.00 0.00 30 1008.6
20191020181410 81 31 12.0 15.0 0.00 0.00 0.00 30 1008.6
20191020181108 81 355 6.0 16.0 0.00 0.00 0.00 30 1008.7
20191020180808 80 33 9.0 16.0 0.00 0.00 0.00 30 1008.6
20191020180505 80 51 11.0 16.0 0.00 0.00 0.00 30 1008.5
20191020180204 80 27 9.0 15.0 0.00 0.00 0.00 30 1008.5
20191020175905 80 47 10.0 18.0 0.00 0.00 0.00 29 1008.6
20191020175604 80 27 14.0 18.0 0.00 0.00 0.00 29 1008.4
20191020175301 80 38 8.0 19.0 0.00 0.00 0.00 29 1008.4
20191020175000 80 42 10.0 19.0 0.00 0.00 0.00 29 1008.1
20191020174701 79 40 15.0 21.0 0.00 0.00 0.00 29 1007.9
20191020174359 79 40 20.0 20.0 0.00 0.00 0.00 29 1008.2
20191020174057 79 45 13.0 17.0 0.00 0.00 0.00 29 1007.9
20191020173756 78 31 16.0 16.0 0.00 0.00 0.00 30 1007.7
20191020173456 77 83 13.0 21.0 0.00 0.00 0.00 31 1007.7
20191020172852 77 20 12.0 24.0 0.00 0.00 0.00 34 1007.8
20191020172553 76 22 9.0 25.0 0.00 0.00 0.00 34 1007.9
20191020172250 76 40 19.0 25.0 0.00 0.00 0.00 35 1007.9
20191020171951 76 15 19.0 29.0 0.00 0.00 0.00 34 1007.8
20191020171347 77 22 11.0 29.0 0.00 0.00 0.00 35 1007.7
20191020171047 77 40 14.0 26.0 0.00 0.00 0.00 34 1008.0
20191020170445 76 18 17.0 20.0 0.00 0.00 0.00 34 1007.7
20191020170145 76 40 12.0 23.0 0.00 0.00 0.00 35 1007.9
20191020165841 76 36 22.0 22.0 0.00 0.00 0.00 35 1007.6
20191020165239 76 353 12.0 24.0 0.00 0.00 0.00 36 1007.6
20191020164938 76 0 8.0 15.0 0.00 0.00 0.00 36 1007.4
20191020164336 76 357 13.0 25.0 0.00 0.00 0.00 36 1007.5
20191020164036 76 92 5.0 17.0 0.00 0.00 0.00 35 1007.4
20191020163735 76 38 9.0 16.0 0.00 0.00 0.00 35 1007.7
20191020163434 76 0 12.0 21.0 0.00 0.00 0.00 35 1007.8
20191020163131 76 42 20.0 22.0 0.00 0.00 0.00 34 1007.5
20191020162832 76 40 9.0 12.0 0.00 0.00 0.00 35 1007.3
20191020162531 76 13 9.0 15.0 0.00 0.00 0.00 35 1007.4
20191020162228 76 36 6.0 13.0 0.00 0.00 0.00 35 1007.5
20191020161929 75 346 4.0 10.0 0.00 0.00 0.00 35 1007.6
20191020161626 75 348 8.0 14.0 0.00 0.00 0.00 35 1007.5
20191020161326 75 355 11.0 18.0 0.00 0.00 0.00 35 1007.5
20191020161024 75 31 10.0 21.0 0.00 0.00 0.00 35 1007.5
20191020160724 75 13 13.0 21.0 0.00 0.00 0.00 35 1007.4
20191020160423 75 13 11.0 18.0 0.00 0.00 0.00 35 1007.4
20191020155821 75 33 12.0 17.0 0.00 0.00 0.00 35 1007.5
20191020155518 75 45 10.0 13.0 0.00 0.00 0.00 36 1007.4
20191020155217 74 22 9.0 11.0 0.00 0.00 0.00 36 1007.5
20191020154918 74 42 11.0 11.0 0.00 0.00 0.00 36 1007.4
20191020154615 74 40 6.0 13.0 0.00 0.00 0.00 37 1007.4
20191020154314 74 31 9.0 15.0 0.00 0.00 0.00 37 1007.3
20191020153712 73 29 8.0 9.0 0.00 0.00 0.00 38 1007.2
20191020153109 73 38 10.0 13.0 0.00 0.00 0.00 39 1007.1
20191020152810 72 42 12.0 18.0 0.00 0.00 0.00 39 1007.1
20191020152507 72 36 11.0 18.0 0.00 0.00 0.00 39 1007.2
20191020151907 72 50 11.0 15.0 0.00 0.00 0.00 40 1007.1
20191020151606 72 32 9.0 15.0 0.00 0.00 0.00 40 1007.1
20191020151001 71 69 12.0 15.0 0.00 0.00 0.00 41 1007.0
20191020150700 71 60 7.0 14.0 0.00 0.00 0.00 41 1006.8
20191020150401 71 72 12.0 15.0 0.00 0.00 0.00 41 1006.8
20191020150100 70 40 9.0 15.0 0.00 0.00 0.00 41 1006.7
20191020145758 70 47 9.0 14.0 0.00 0.00 0.00 41 1006.5
20191020145458 70 51 9.0 19.0 0.00 0.00 0.00 42 1006.5
20191020145155 70 31 12.0 14.0 0.00 0.00 0.00 42 1006.6
20191020144855 69 35 12.0 17.0 0.00 0.00 0.00 43 1006.6
20191020144553 69 45 12.0 17.0 0.00 0.00 0.00 44 1006.7
20191020144252 69 0 5.0 17.0 0.00 0.00 0.00 44 1006.7
20191020143950 68 0 10.0 13.0 0.00 0.00 0.00 45 1006.6
20191020143649 68 0 11.0 12.0 0.00 0.00 0.00 45 1006.5
20191020143350 68 0 8.0 17.0 0.00 0.00 0.00 45 1006.3
20191020143047 68 0 8.0 13.0 0.00 0.00 0.00 46 1006.4
20191020142746 67 315 10.0 11.0 0.00 0.00 0.00 46 1006.4
20191020142445 67 18 2.0 12.0 0.00 0.00 0.00 46 1006.2
20191020142145 67 90 10.0 10.0 0.00 0.00 0.00 47 1006.2
20191020141543 67 90 8.0 10.0 0.00 0.00 0.00 46 1006.3
20191020141242 67 54 3.0 12.0 0.00 0.00 0.00 46 1006.3
20191020140942 67 78 10.0 12.0 0.00 0.00 0.00 47 1006.3
20191020140337 67 60 6.0 15.0 0.00 0.00 0.00 47 1006.4
20191020140038 67 69 10.0 15.0 0.00 0.00 0.00 47 1006.4
20191020135434 66 72 8.0 12.0 0.00 0.00 0.00 48 1006.4
20191020135133 66 67 6.0 9.0 0.00 0.00 0.00 48 1006.4
20191020134532 66 52 9.0 11.0 0.00 0.00 0.00 49 1006.2
20191020134230 66 42 4.0 11.0 0.00 0.00 0.00 49 1006.2
20191020133928 66 36 4.0 10.0 0.00 0.00 0.00 49 1006.3
20191020133627 66 40 6.0 9.0 0.00 0.00 0.00 49 1006.2
20191020133326 66 49 5.0 9.0 0.00 0.00 0.00 49 1006.2
20191020133027 66 63 4.0 9.0 0.00 0.00 0.00 49 1006.1
20191020132724 66 36 5.0 8.0 0.00 0.00 0.00 49 1006.2
20191020132423 66 49 5.0 9.0 0.00 0.00 0.00 49 1006.2
20191020131821 66 85 9.0 12.0 0.00 0.00 0.00 49 1006.0
20191020131520 66 45 12.0 12.0 0.00 0.00 0.00 49 1006.1
20191020131218 66 20 6.0 10.0 0.00 0.00 0.00 50 1006.1
20191020130919 66 42 6.0 12.0 0.00 0.00 0.00 50 1005.9
20191020130616 66 29 11.0 13.0 0.00 0.00 0.00 50 1005.8
20191020130315 66 54 10.0 13.0 0.00 0.00 0.00 50 1005.8
20191020130014 65 15 8.0 17.0 0.00 0.00 0.00 51 1005.7
20191020125714 65 31 13.0 17.0 0.00 0.00 0.00 51 1005.6
20191020125412 65 27 10.0 15.0 0.00 0.00 0.00 52 1005.6
20191020125112 64 42 13.0 13.0 0.00 0.00 0.00 52 1005.6
20191020124811 64 38 7.0 12.0 0.00 0.00 0.00 52 1005.4
20191020124510 64 45 0.0 6.0 0.00 0.00 0.00 52 1005.6
20191020124207 63 76 4.0 6.0 0.00 0.00 0.00 53 1005.4
20191020123908 63 45 2.0 8.0 0.00 0.00 0.00 53 1005.2
20191020123605 63 127 3.0 11.0 0.00 0.00 0.00 54 1005.7
20191020123305 63 87 6.0 10.0 0.00 0.00 0.00 54 1005.4
20191020123005 63 101 3.0 10.0 0.00 0.00 0.00 54 1005.6
20191020122403 62 96 5.0 8.0 0.00 0.00 0.00 55 1005.2
20191020122100 61 119 7.0 8.0 0.00 0.00 0.00 54 1005.2
20191020121800 61 130 5.0 9.0 0.00 0.00 0.00 55 1005.1
20191020121459 60 90 2.0 9.0 0.00 0.00 0.00 55 1005.2
20191020121158 60 47 5.0 9.0 0.00 0.00 0.00 55 1005.2
20191020120855 60 90 5.0 7.0 0.00 0.00 0.00 54 1005.2
20191020120554 59 135 1.0 4.0 0.00 0.00 0.00 53 1005.3
20191020120255 59 135 3.0 4.0 0.00 0.00 0.00 52 1005.2
20191020115953 59 180 1.0 6.0 0.00 0.00 0.00 52 1005.1
20191020115651 59 225 6.0 6.0 0.00 0.00 0.00 52 1005.0
20191020115351 59 220 2.0 2.0 0.00 0.00 0.00 51 1005.1
20191020115050 59 225 0.0 2.0 0.00 0.00 0.00 52 1005.1
20191020114441 59 135 2.0 6.0 0.00 0.00 0.00 52 1005.1
20191020113234 59 90 2.0 3.0 0.00 0.00 0.00 51 1005.0
20191020112933 59 270 1.0 7.0 0.00 0.00 0.00 51 1005.1
20191020112630 58 225 0.0 7.0 0.00 0.00 0.00 50 1004.9
20191020112330 58 90 3.0 3.0 0.00 0.00 0.00 51 1004.9
20191020112028 58 45 1.0 2.0 0.00 0.00 0.00 51 1004.9
20191020111427 58 45 0.0 7.0 0.00 0.00 0.00 50 1004.7
20191020111124 58 45 3.0 7.0 0.00 0.00 0.00 51 1004.7
20191020110823 58 186 3.0 4.0 0.00 0.00 0.00 50 1004.7
20191020110524 59 270 1.0 1.0 0.00 0.00 0.00 49 1004.8
20191020105921 59 180 4.0 4.0 0.00 0.00 0.00 49 1004.8
20191020105620 59 247 1.0 3.0 0.00 0.00 0.00 49 1004.7
20191020105318 60 180 2.0 8.0 0.00 0.00 0.00 49 1004.6
20191020105057 60 213 3.0 8.0 0.00 0.00 0.00 50 100.4
20191020105018 60 213 3.0 8.0 0.00 0.00 0.00 50 1004.7
20191020104715 59 315 3.0 7.0 0.00 0.00 0.00 50 1004.8
20191020104115 58 247 0.0 3.0 0.00 0.00 0.00 49 1004.9
20191020103812 58 213 1.0 4.0 0.00 0.00 0.00 49 1005.1
20191020103511 58 292 2.0 4.0 0.00 0.00 0.00 50 1005.0
20191020103211 58 270 0.0 4.0 0.00 0.00 0.00 49 1005.1
20191020102910 58 180 3.0 4.0 0.00 0.00 0.00 50 1005.2
20191020102609 58 225 0.0 5.0 0.00 0.00 0.00 49 1005.1
20191020102306 59 225 0.0 4.0 0.00 0.00 0.00 49 1005.2
20191020102006 59 270 3.0 4.0 0.00 0.00 0.00 49 1005.1
20191020101706 59 225 0.0 2.0 0.00 0.00 0.00 49 1005.0
20191020101403 59 270 1.0 2.0 0.00 0.00 0.00 49 1004.9
20191020100502 59 270 1.0 4.0 0.00 0.00 0.00 49 1004.8
20191020095858 58 225 0.0 1.0 0.00 0.00 0.00 49 1004.9
20191020095556 58 225 0.0 1.0 0.00 0.00 0.00 49 1005.0